Flag for United Kingdom Weather past 2 weeks in London, England, United Kingdom

Now
75 °F

Sunny.


Feels Like: 77 °F
Forecast: 64 / 76 °F
Wind: 12 mph from South

Location: Northolt

Current Time: Aug 2, 2015 at 7:36:56 PM

Latest Report: Aug 2, 2015 at 6:50 PM


Visibility: 10 mi

Pressure: 29.92 "Hg

Humidity: 36%

Dew point: 46 °F

Location of LondonLocation

Historic Weather in London — Graph

°F

London temperature yesterday

Maximum temperature yesterday: 68 °F (at 12:50 PM)
Minimum temperature yesterday: 46 °F (at 5:50 AM)
Average temperature yesterday: 60 °F

Past Weeks' High & Low Weather Summary

 TemperatureHumidityPressure
High77 °F (Jul 21, 1:50 PM)100% (Jul 24, 2:50 PM)30.12 "Hg (Jul 24, 2:50 PM)
Low45 °F (Jul 31, 4:50 AM)19% (Jul 19, 6:50 PM)29.42 "Hg (Jul 26, 7:50 PM)
Average61 °F69%29.88 "Hg
* Reported Jul 18 5:50 PM — Aug 2 5:50 PM, London, Weather by CustomWeather, © 2015

Note: Actual official high and low records may vary slightly from our data, if they occured in-between our weather recording intervals... More about our weather records

Advertising

London weather history for previous 24 hours

 ConditionsComfort  
Time TempWeatherWind HumidityBarometerVisibility
5:50 PM
Sun, Aug 2
77 °FSunny.13 mph30%29.95 "Hg10 mi
4:50 PM77 °FSunny.13 mph42%29.95 "Hg10 mi
3:53 PM77 °FSunny.14 mph42%29.98 "Hg10 mi
2:50 PM77 °FSunny.12 mph42%30.01 "Hg10 mi
1:50 PM75 °FSunny.10 mph41%30.04 "Hg10 mi
12:50 PM73 °FPartly sunny.10 mph47%30.04 "HgN/A
11:50 AM72 °FPartly sunny.7 mph53%30.07 "HgN/A
10:50 AM68 °FScattered clouds.10 mph60%30.07 "HgN/A
9:50 AM64 °FScattered clouds.6 mph73%30.09 "HgN/A
8:50 AM61 °FScattered clouds.3 mph83%30.09 "HgN/A
7:50 AM57 °FBroken clouds.6 mph94%30.07 "HgN/A
6:50 AM54 °FSunny.1 mph100%30.07 "Hg10 mi
5:50 AM48 °FClear.No wind100%30.07 "HgN/A
4:50 AM50 °FClear.1 mph94%30.07 "HgN/A
3:50 AM52 °FClear.1 mph94%30.07 "HgN/A
2:50 AM54 °FClear.1 mph94%30.07 "HgN/A
1:50 AM55 °FClear.2 mph94%30.07 "HgN/A
12:50 AM57 °FClear.6 mph88%30.07 "HgN/A
11:50 PM
Sat, Aug 1
57 °FClear.3 mph82%30.07 "HgN/A
10:50 PM59 °FPassing clouds.2 mph77%30.07 "HgN/A
9:50 PM61 °FPassing clouds.3 mph72%30.04 "HgN/A
8:50 PM64 °FScattered clouds.8 mph60%30.04 "HgN/A
7:50 PM66 °FPartly sunny.9 mph52%30.01 "HgN/A
Weather by CustomWeather, © 2015

See weather overviewHow to use our weather pages